User: anonymous   Login
Location: Pine Mountain Observatory
(43.7910°N, 120.9377°W)
Time: 23:41:58
(UTC-08:00)
Language:

Cosmos 1867 - Orbit

View from above orbital plane
View from above orbital plane
View from above satellite
View from above satellite

Ground track
Ground track

The orbit data is extracted from the following two-line orbital elements,

1 18187U 87060A   17057.74812411 -.00000094  00000-0  22332-5 0  9995
2 18187  65.0106 177.8782 0016587 257.8020 102.1207 14.31082225548194
Epoch (UTC): 26 February 2017 17:57:17
Eccentricity: 0.0016587
inclination: 65.0106°
perigee height: 776 km
apogee height: 800 km
right ascension of ascending node: 177.8782°
argument of perigee: 257.8020°
revolutions per day: 14.31082225
mean anomaly at epoch: 102.1207°
orbit number at epoch: 54819

The dashed part of the orbit path shows where the satellite is in the earth's shadow,  

DLR